| time (UTC) | temp F | wind direction | speed knots | gust knots | rain 1hr in | rain 24hr in | rain mn in | humidity % | barometer mb |
| 20260505114601 | 44 | 288 | 0.9 | 5.2 | 0.03 | 0.14 | 0.13 | 93 | 1012.4 |
| 20260505113104 | 44 | 248 | 0.0 | 5.2 | 0.03 | 0.14 | 0.13 | 93 | 1012.6 |
| 20260505111546 | 44 | 202 | 0.9 | 12.2 | 0.03 | 0.13 | 0.12 | 93 | 1012.5 |
| 20260505101539 | 43 | 224 | 0.0 | 2.6 | 0.07 | 0.10 | 0.09 | 93 | 1012.8 |
| 20260505100036 | 42 | 315 | 0.0 | 3.5 | 0.06 | 0.08 | 0.07 | 92 | 1012.9 |
| 20260505094536 | 42 | 317 | 0.0 | 3.5 | 0.05 | 0.06 | 0.05 | 92 | 1013.0 |
| 20260505093033 | 42 | 229 | 0.0 | 0.9 | 0.03 | 0.04 | 0.03 | 92 | 1013.1 |
| 20260505091532 | 42 | 228 | 0.0 | 0.0 | 0.02 | 0.03 | 0.02 | 92 | 1013.1 |
| 20260505090036 | 42 | 227 | 0.0 | 2.6 | 0.01 | 0.02 | 0.01 | 91 | 1013.2 |
| 20260505084529 | 42 | 240 | 0.0 | 1.7 | 0.00 | 0.01 | 0.00 | 91 | 1013.2 |
| 20260505083027 | 43 | 261 | 0.0 | 2.6 | 0.00 | 0.01 | 0.00 | 92 | 1013.3 |
| 20260505081539 | 43 | 309 | 0.0 | 0.0 | 0.00 | 0.01 | 0.00 | 92 | 1013.7 |
| 20260505080024 | 43 | 309 | 0.0 | 0.9 | 0.00 | 0.01 | 0.00 | 92 | 1014.0 |
| 20260505074524 | 43 | 309 | 0.0 | 0.0 | 0.00 | 0.01 | 0.00 | 92 | 1014.0 |
| 20260505073027 | 43 | 310 | 0.0 | 5.2 | 0.00 | 0.01 | 0.00 | 91 | 1014.0 |
| 20260505071540 | 43 | 300 | 0.0 | 3.5 | 0.00 | 0.01 | 0.00 | 91 | 1014.1 |
| 20260505070019 | 43 | 315 | 0.0 | 2.6 | 0.00 | 0.01 | 0.00 | 91 | 1014.1 |
| 20260505064523 | 43 | 260 | 0.0 | 2.6 | 0.01 | 0.01 | 0.01 | 91 | 1014.1 |
| 20260505063018 | 43 | 258 | 0.0 | 4.3 | 0.01 | 0.01 | 0.01 | 91 | 1014.3 |
| 20260505061517 | 43 | 271 | 0.0 | 4.3 | 0.01 | 0.01 | 0.01 | 91 | 1014.3 |
| 20260505060017 | 43 | 297 | 0.0 | 6.1 | 0.01 | 0.01 | 0.01 | 91 | 1014.3 |
| 20260505054520 | 43 | 315 | 0.0 | 7.0 | 0.00 | 0.00 | 0.00 | 90 | 1014.5 |
| 20260505053023 | 43 | 306 | 0.9 | 5.2 | 0.00 | 0.00 | 0.00 | 90 | 1014.7 |
| 20260505051525 | 43 | 273 | 0.0 | 7.0 | 0.00 | 0.00 | 0.00 | 90 | 1014.9 |
| 20260505041515 | 45 | 270 | 0.0 | 4.3 | 0.00 | 0.00 | 0.00 | 88 | 1014.7 |
| 20260505040015 | 45 | 333 | 0.0 | 5.2 | 0.00 | 0.00 | 0.00 | 88 | 1014.7 |
| 20260505034511 | 45 | 316 | 0.9 | 9.6 | 0.00 | 0.00 | 0.00 | 87 | 1014.4 |
| 20260505033011 | 46 | 302 | 0.9 | 5.2 | 0.00 | 0.00 | 0.00 | 86 | 1014.3 |
| 20260505031508 | 46 | 262 | 0.0 | 8.7 | 0.00 | 0.00 | 0.00 | 85 | 1014.3 |
| 20260505030021 | 46 | 286 | 0.9 | 7.0 | 0.00 | 0.00 | 0.00 | 84 | 1014.1 |
| 20260505024508 | 47 | 296 | 0.0 | 9.6 | 0.00 | 0.00 | 0.00 | 83 | 1014.0 |
| 20260505023008 | 47 | 293 | 1.7 | 11.3 | 0.00 | 0.00 | 0.00 | 81 | 1013.9 |
| 20260505021508 | 48 | 325 | 3.5 | 9.6 | 0.00 | 0.00 | 0.00 | 81 | 1014.0 |
| 20260505020007 | 48 | 269 | 0.9 | 7.8 | 0.00 | 0.00 | 0.00 | 79 | 1014.0 |
| 20260505014507 | 49 | 252 | 0.0 | 2.6 | 0.00 | 0.00 | 0.00 | 76 | 1013.9 |
| 20260505013006 | 50 | 280 | 0.0 | 3.5 | 0.00 | 0.00 | 0.00 | 75 | 1014.1 |
| 20260505011509 | 51 | 328 | 0.0 | 3.5 | 0.00 | 0.00 | 0.00 | 72 | 1014.1 |
| 20260505010006 | 52 | 263 | 0.0 | 13.0 | 0.00 | 0.00 | 0.00 | 70 | 1014.2 |
| 20260505004506 | 52 | 298 | 0.0 | 9.6 | 0.00 | 0.00 | 0.00 | 68 | 1014.1 |
| 20260505003004 | 52 | 318 | 0.0 | 7.8 | 0.00 | 0.00 | 0.00 | 67 | 1014.2 |
| 20260505001503 | 52 | 278 | 0.0 | 11.3 | 0.00 | 0.00 | 0.00 | 67 | 1014.1 |
| 20260505000002 | 52 | 296 | 0.0 | 11.3 | 0.00 | 0.00 | 0.00 | 67 | 1014.3 |
| 20260504234502 | 52 | 341 | 0.0 | 9.6 | 0.00 | 0.00 | 0.00 | 66 | 1014.4 |
| 20260504233002 | 52 | 255 | 0.0 | 7.0 | 0.00 | 0.00 | 0.00 | 66 | 1014.3 |
| 20260504231501 | 53 | 267 | 0.0 | 10.4 | 0.00 | 0.00 | 0.00 | 65 | 1014.3 |
| 20260504224603 | 53 | 287 | 0.0 | 7.8 | 0.00 | 0.00 | 0.00 | 63 | 1014.3 |
| 20260504223100 | 54 | 304 | 0.0 | 13.0 | 0.00 | 0.00 | 0.00 | 63 | 1014.4 |
| 20260504221600 | 54 | 309 | 0.0 | 9.6 | 0.00 | 0.00 | 0.00 | 64 | 1014.4 |
| 20260504220121 | 54 | 299 | 0.0 | 5.2 | 0.00 | 0.00 | 0.00 | 63 | 1014.6 |
| 20260504214600 | 54 | 314 | 0.0 | 8.7 | 0.00 | 0.00 | 0.00 | 64 | 1014.7 |
| 20260504213102 | 55 | 309 | 0.0 | 3.5 | 0.00 | 0.00 | 0.00 | 61 | 1014.7 |
| 20260504211557 | 56 | 302 | 0.9 | 12.2 | 0.00 | 0.00 | 0.00 | 59 | 1014.7 |
| 20260504210056 | 57 | 304 | 0.0 | 12.2 | 0.00 | 0.00 | 0.00 | 59 | 1014.6 |
| 20260504204553 | 56 | 242 | 0.0 | 13.0 | 0.00 | 0.00 | 0.00 | 61 | 1014.6 |
| 20260504203051 | 56 | 333 | 0.0 | 11.3 | 0.00 | 0.00 | 0.00 | 62 | 1014.7 |
| 20260504201548 | 54 | 323 | 0.0 | 9.6 | 0.00 | 0.00 | 0.00 | 67 | 1014.8 |
| 20260504200050 | 53 | 308 | 0.0 | 9.6 | 0.00 | 0.00 | 0.00 | 66 | 1014.9 |
| 20260504194545 | 53 | 290 | 0.0 | 1.7 | 0.00 | 0.00 | 0.00 | 71 | 1014.9 |
| 20260504193037 | 52 | 324 | 0.0 | 8.7 | 0.00 | 0.00 | 0.00 | 70 | 1014.9 |
| 20260504191549 | 52 | 299 | 0.9 | 7.8 | 0.00 | 0.00 | 0.00 | 70 | 1014.7 |
| 20260504190031 | 51 | 306 | 0.0 | 2.6 | 0.00 | 0.00 | 0.00 | 74 | 1015.0 |
| 20260504184533 | 51 | 297 | 0.0 | 5.2 | 0.00 | 0.00 | 0.00 | 74 | 1015.0 |
| 20260504183039 | 50 | 292 | 0.0 | 5.2 | 0.00 | 0.00 | 0.00 | 75 | 1015.1 |
| 20260504181529 | 50 | 309 | 0.0 | 3.5 | 0.00 | 0.00 | 0.00 | 74 | 1015.1 |
| 20260504180029 | 50 | 293 | 0.0 | 7.8 | 0.00 | 0.00 | 0.00 | 72 | 1014.9 |
| 20260504174526 | 50 | 294 | 0.0 | 4.3 | 0.00 | 0.00 | 0.00 | 73 | 1014.8 |
| 20260504173027 | 50 | 246 | 0.0 | 7.8 | 0.00 | 0.00 | 0.00 | 73 | 1014.6 |
| 20260504171521 | 49 | 309 | 0.0 | 7.0 | 0.00 | 0.00 | 0.00 | 75 | 1014.4 |